Kenai, AK

4:34 PM AKST on December 06, 2019 (GMT -0900)
Kenai Municipal

Weather History for PAEN - October, 2019

Change the Weather History Date:

Wednesday, October 16, 2019

  Actual Average Record
Temperature  
Mean Temperature 31 °F -  
Max Temperature 34 °F 42 °F 54 °F (1972)
Min Temperature 28 °F 28 °F 0 °F (1996)
Degree Days  
Heating Degree Days 34    
Moisture  
Dew Point 28 °F    
Average Humidity 84    
Maximum Humidity 96    
Minimum Humidity 72    
Precipitation  
Precipitation 0.04 in - - ()
Sea Level Pressure  
Sea Level Pressure 29.17 in    
Wind  
Wind Speed 5 mph (NE)    
Max Wind Speed 10 mph    
Max Gust Speed -    
Visibility 5 miles    
Events Snow    
Averages and records for this station are not official NWS values.
T = Trace of Precipitation, MM = Missing Value Source: NWS Daily Summary

Daily Weather History Graph

Daily Weather History Graph

Search for Another Location

Airport or City:

Astronomy

Oct. 16, 2019 Rise Set
Actual Time 8:48 AM AKDT 6:51 PM AKDT
Civil Twilight 8:05 AM AKDT 7:34 PM AKDT
Nautical Twilight 7:16 AM AKDT 8:23 PM AKDT
Astronomical Twilight 6:26 AM AKDT 9:12 PM AKDT
Moon 8:09 PM AKDT (10/16) 12:05 PM AKDT (10/16)
Length of Visible Light 11h 29m
Length of Day
10h 03m
Waning Gibbous, 92% of the Moon is Illuminated
Oct 16
Waning Gibbous
Oct 21
Last Quarter
Oct 27
New
Nov 4
First Quarter
Nov 12
Full

Hourly Weather History & Observations

Time (AKDT) Temp. Windchill Dew Point Humidity Pressure Visibility Wind Dir Wind Speed Gust Speed Precip Events Conditions
12:53 AM 32.0 °F - 24.1 °F 73% 29.35 in 10.0 mi Calm Calm - N/A   Overcast
1:53 AM 32.0 °F 28.7 °F 24.1 °F 73% 29.34 in 10.0 mi NNE 3.5 mph - N/A   Overcast
2:53 AM 30.9 °F - 23.0 °F 72% 29.34 in 10.0 mi Calm Calm - N/A   Overcast
3:53 AM 28.9 °F 25.2 °F 21.0 °F 72% 29.33 in 10.0 mi ENE 3.5 mph - N/A   Mostly Cloudy
4:53 AM 28.9 °F 25.2 °F 23.0 °F 78% 29.32 in 10.0 mi NE 3.5 mph - N/A   Overcast
5:53 AM 28.9 °F 23.9 °F 21.9 °F 75% 29.31 in 10.0 mi NE 4.6 mph - N/A   Mostly Cloudy
6:53 AM 30.0 °F 26.5 °F 23.0 °F 75% 29.29 in 10.0 mi NE 3.5 mph - N/A   Overcast
7:53 AM 30.0 °F 26.5 °F 24.1 °F 79% 29.28 in 10.0 mi ENE 3.5 mph - N/A   Overcast
8:53 AM 30.9 °F 26.2 °F 23.0 °F 72% 29.26 in 10.0 mi ENE 4.6 mph - N/A   Overcast
9:53 AM 33.1 °F 26.9 °F 25.0 °F 72% 29.25 in 10.0 mi ENE 6.9 mph - N/A   Overcast
10:53 AM 33.1 °F 25.5 °F 26.1 °F 75% 29.23 in 10.0 mi ENE 9.2 mph - N/A   Overcast
11:53 AM 34.0 °F 26.0 °F 27.0 °F 75% 29.21 in 7.0 mi NE 10.4 mph - 0.00 in Snow Light Snow
12:26 PM 34.0 °F 27.2 °F 27.0 °F 75% 29.19 in 2.0 mi NE 8.1 mph - 0.00 in Snow Light Snow
12:43 PM 34.0 °F 28.0 °F 28.0 °F 79% 29.19 in 2.0 mi NE 6.9 mph - 0.00 in Snow Light Snow
12:53 PM 34.0 °F 26.6 °F 28.0 °F 79% 29.19 in 2.0 mi NE 9.2 mph - 0.00 in Snow Light Snow
1:00 PM 33.1 °F 25.5 °F 28.0 °F 82% 29.18 in 2.0 mi NE 9.2 mph - 0.00 in Snow Light Snow
1:53 PM 33.1 °F 24.9 °F 28.9 °F 85% 29.17 in 1.5 mi NNE 10.4 mph - 0.00 in Snow Light Snow
2:07 PM 33.1 °F 24.9 °F 28.9 °F 85% 29.16 in 1.5 mi NE 10.4 mph - 0.00 in Snow Light Snow
2:13 PM 33.1 °F 25.5 °F 28.9 °F 85% 29.15 in 2.0 mi NNE 9.2 mph - 0.00 in Snow Light Snow
2:20 PM 33.1 °F 26.1 °F 28.9 °F 85% 29.15 in 1.5 mi NNE 8.1 mph - 0.00 in Snow Light Snow
2:28 PM 33.1 °F 26.1 °F 30.0 °F 89% 29.15 in 1.2 mi NNE 8.1 mph - 0.00 in Snow Light Snow
2:53 PM 33.1 °F 26.9 °F 30.0 °F 89% 29.15 in 1.5 mi NNE 6.9 mph - 0.01 in Snow Light Snow
3:25 PM 33.1 °F 26.9 °F 30.0 °F 89% 29.13 in 2.0 mi NE 6.9 mph - 0.00 in Snow Light Snow
3:40 PM 33.1 °F 26.1 °F 30.0 °F 89% 29.12 in 3.0 mi NNE 8.1 mph - 0.01 in Snow Light Snow
3:53 PM 33.1 °F 25.5 °F 30.0 °F 89% 29.13 in 2.0 mi NNE 9.2 mph - 0.01 in Snow Light Snow
4:01 PM 33.1 °F 26.9 °F 30.0 °F 89% 29.11 in 1.8 mi NNE 6.9 mph - 0.00 in Snow Light Snow
4:17 PM 33.1 °F 26.1 °F 30.0 °F 89% 29.11 in 3.0 mi NNE 8.1 mph - 0.00 in Snow Light Snow
4:20 PM 33.1 °F 25.5 °F 30.0 °F 89% 29.11 in 3.0 mi NNE 9.2 mph - 0.00 in Snow Light Snow
4:53 PM 34.0 °F 27.2 °F 30.0 °F 85% 29.11 in 3.0 mi NNE 8.1 mph - 0.00 in Snow Light Snow
5:53 PM 34.0 °F 29.8 °F 30.9 °F 89% 29.10 in 10.0 mi NNE 4.6 mph - 0.00 in   Overcast
6:53 PM 33.1 °F 27.7 °F 30.0 °F 89% 29.09 in 2.5 mi NE 5.8 mph - 0.01 in Snow Light Snow
7:53 PM 33.8 °F 27.7 °F 30.2 °F 87% 29.07 in 3.0 mi NE 6.9 mph - N/A Snow Light Snow
8:16 PM 33.1 °F 27.7 °F 30.9 °F 92% 29.07 in 3.0 mi NE 5.8 mph - 0.00 in Snow Light Snow
8:53 PM 33.1 °F - 30.9 °F 92% 29.08 in 4.0 mi Calm Calm - 0.01 in Snow Light Snow
9:00 PM 33.1 °F - 30.9 °F 92% 29.07 in 4.0 mi Calm Calm - 0.00 in Snow Light Snow
9:18 PM 33.1 °F 30.0 °F 30.9 °F 92% 29.07 in 5.0 mi ENE 3.5 mph - 0.00 in Snow Light Snow
9:38 PM 33.1 °F 28.7 °F 30.9 °F 92% 29.06 in 5.0 mi NNE 4.6 mph - 0.00 in Snow Light Snow
9:49 PM 33.8 °F 28.6 °F 30.2 °F 87% 29.06 in 3.0 mi NNE 5.8 mph - 0.00 in Snow Light Snow
9:53 PM 33.1 °F 26.1 °F 30.9 °F 92% 29.07 in 3.0 mi NNE 8.1 mph - 0.00 in Snow Light Snow
10:53 PM 33.1 °F 28.7 °F 30.9 °F 92% 29.07 in 10.0 mi NE 4.6 mph - 0.00 in   Overcast
11:30 PM 33.1 °F - 32.0 °F 96% 29.07 in 10.0 mi Calm Calm - 0.00 in   Overcast
11:53 PM 33.1 °F - 30.9 °F 92% 29.08 in 10.0 mi Calm Calm - 0.00 in   Overcast